Home   Weather   Costa Mesa   Past weeks

Flag for USA Past Weather in Costa Mesa, California, USA — Yesterday and Last 2 Weeks

Now
70 °F

Partly sunny.


Feels Like: 76 °F
Forecast: 59 / 74 °F
Wind: 15 mph from Southwest

Location: John Wayne Airport-Orange County Airport

Current Time: Apr 26, 2017 at 12:54:33 pm

Latest Report: Apr 26, 2017 at 11:53 am


Visibility: 10 mi

Pressure: 29.91 "Hg

Humidity: 59%

Dew Point: 55 °F

Location of Costa MesaLocation

Past Weather in Costa Mesa — Graph

°F

Costa Mesa Temperature Yesterday

Maximum temperature yesterday: 73 °F (at 12:53 pm)
Minimum temperature yesterday: 59 °F (at 5:53 am)
Average temperature yesterday: 64 °F

High & Low Weather Summary for the Past Weeks

 TemperatureHumidityPressure
High84 °F (Apr 22, 1:53 pm)97% (Apr 18, 11:07 pm)30.14 "Hg (Apr 18, 11:07 pm)
Low52 °F (Apr 15, 5:53 am)23% (Apr 21, 8:53 pm)29.81 "Hg (Apr 21, 6:53 pm)
Average65 °F68%29.98 "Hg
* Reported Apr 11 10:53 am — Apr 26 10:53 am, Costa Mesa, Weather by CustomWeather, © 2017

Note: Actual official high and low records may vary slightly from our data, if they occured in-between our weather recording intervals... More about our weather records

Advertising

Costa Mesa Weather History for the Previous 24 Hours

Scroll right to see more
 ConditionsComfort  
Time TempWeatherWind HumidityBarometerVisibility
10:53 am
Wed, Apr 26
69 °FPartly sunny.12 mph59%29.91 "Hg10 mi
9:53 am68 °FBroken clouds.3 mph63%29.92 "Hg10 mi
8:53 am65 °FBroken clouds.5 mph70%29.91 "Hg10 mi
7:53 am62 °FBroken clouds.3 mph75%29.90 "Hg10 mi
6:53 am60 °FBroken clouds.No wind75%29.89 "Hg10 mi
5:53 am59 °FPartly cloudy.3 mph81%29.88 "Hg10 mi
4:53 am60 °FClear.No wind83%29.88 "Hg10 mi
3:53 am59 °FClear.6 mph87%29.87 "Hg10 mi
2:53 am60 °FClear.5 mph86%29.88 "Hg10 mi
1:53 am60 °FClear.5 mph83%29.88 "Hg10 mi
12:53 am60 °FClear.5 mph80%29.90 "Hg10 mi
11:53 pm
Tue, Apr 25
61 °FClear.5 mph75%29.90 "Hg9 mi
10:53 pm61 °FPassing clouds.8 mph75%29.90 "Hg8 mi
9:53 pm62 °FPassing clouds.7 mph73%29.90 "Hg10 mi
8:53 pm63 °FPartly cloudy.9 mph70%29.89 "Hg10 mi
7:53 pm63 °FPartly cloudy.8 mph73%29.88 "Hg10 mi
6:53 pm64 °FPartly sunny.8 mph68%29.85 "Hg10 mi
5:53 pm67 °FPartly sunny.10 mph55%29.86 "Hg10 mi
4:53 pm69 °FPartly sunny.9 mph51%29.86 "Hg10 mi
3:53 pm70 °FBroken clouds.8 mph46%29.87 "Hg10 mi
2:53 pm71 °FBroken clouds.10 mph39%29.88 "Hg10 mi
1:53 pm69 °FPartly sunny.14 mph53%29.89 "Hg10 mi
12:53 pm73 °FBroken clouds.13 mph48%29.90 "Hg10 mi
Weather by CustomWeather, © 2017

See weather overviewHow to use our weather pages